GSAT0214 (PRN E05)

Last updated on June 27, 2019, 3:44 a.m. UTC

1 41862U 16069D   19176.99179066  .00000086  00000-0  00000+0 0  9997
2 41862  54.6056 171.7727 0004734 278.2117  81.7430  1.70473530 16209
UTC
Height (km)
Latitude
Longitude
Inclination
Orbital Period
UTC large
Height (km)
Speed (km/s)
/
Latitude / Longitude
Inclination (degrees)
Orbital Period (minutes)
Azimuth
Elevation
Range (km)
Doppler Factor
iOS Compass Heading
iOS Angle

Next 30 passes for location: Hong Kong

Rise time Rise Azimuth (degrees) Set time Set Azimuth (degrees) Duration Max altitude (degrees)

No matching passes for this satellites